Flag for Japan Weather past 2 weeks in Fukushima, Japan

Now
85 °F

Warm.


Feels Like: 90 °F
Forecast: 69 / 95 °F
Wind: 3 mph from Northwest

Location: Wakamatsu

Current Time: Aug 3, 2015 at 10:18:18 AM

Latest Report: Aug 3, 2015 at 9:00 AM


Visibility: 10 mi

Pressure: 29.90 "Hg

Humidity: 64%

Dew point: 71 °F

Location of FukushimaLocation

Historic Weather in Fukushima — Graph

°F

Fukushima temperature yesterday

Maximum temperature yesterday: 96 °F (at 4:00 PM)
Minimum temperature yesterday: 74 °F (at 3:00 AM)
Average temperature yesterday: 84 °F

Past Weeks' High & Low Weather Summary

 TemperatureHumidityPressure
High96 °F (Jul 21, 2:00 PM)100% (Jul 20, 4:00 AM)29.99 "Hg (Jul 20, 4:00 AM)
Low69 °F (Jul 26, 5:00 AM)43% (Jul 22, 2:00 PM)29.67 "Hg (Jul 27, 5:00 PM)
Average81 °F79%29.84 "Hg
* Reported Jul 19 9:00 AM — Aug 3 9:00 AM, Fukushima, Weather by CustomWeather, © 2015

Note: Actual official high and low records may vary slightly from our data, if they occured in-between our weather recording intervals... More about our weather records

Advertising

Fukushima weather history for previous 24 hours

 ConditionsComfort  
Time TempWeatherWind HumidityBarometerVisibility
9:00 AM
Mon, Aug 3
85 °FWarm.3 mph64%29.90 "Hg10 mi
8:00 AM81 °FWarm.3 mph69%29.92 "Hg11 mi
7:00 AM77 °FWarm.3 mph78%29.92 "Hg7 mi
5:00 AM73 °FMild.1 mph94%29.92 "Hg7 mi
4:00 AM73 °FMild.2 mph92%29.91 "Hg8 mi
3:00 AM75 °FMild.2 mph84%29.89 "Hg9 mi
2:00 AM76 °FMild.3 mph83%29.88 "Hg10 mi
1:00 AM76 °FMild.3 mph84%29.88 "Hg11 mi
12:00 AM76 °FMild.5 mph82%29.88 "Hg12 mi
11:00 PM
Sun, Aug 2
79 °FWarm.2 mph73%29.89 "Hg12 mi
10:00 PM79 °FWarm.2 mph71%29.90 "Hg12 mi
9:00 PM80 °FWarm.3 mph67%29.90 "Hg12 mi
8:00 PM81 °FWarm.5 mph64%29.90 "Hg12 mi
7:00 PM87 °FWarm.2 mph62%29.85 "Hg10 mi
6:00 PM91 °FHot.8 mph54%29.82 "Hg11 mi
5:00 PM94 °FExtremely hot.7 mph50%29.83 "Hg12 mi
4:00 PM96 °FExtremely hot.6 mph44%29.83 "Hg12 mi
3:00 PM95 °FExtremely hot.7 mph43%29.82 "Hg12 mi
2:00 PM94 °FExtremely hot.5 mph46%29.84 "Hg12 mi
1:00 PM94 °FExtremely hot.7 mph46%29.85 "Hg12 mi
12:00 PM92 °FHot.7 mph47%29.87 "Hg12 mi
11:00 AM90 °FHot.3 mph50%29.89 "Hg12 mi
10:00 AM87 °FWarm.3 mph60%29.91 "Hg10 mi
Weather by CustomWeather, © 2015

See weather overviewHow to use our weather pages